• In Netherlands
  • List of Countries
  • For 7 days
  • Water Temperature
  • Satellite Maps
  • Weather Map
  • Weather Widgets
  • user-avatar
    Login

    Hourly Weather Prutz

    Today, 29 June, Thursday

    Time Temperature Precipitation Wind Pressure Humidity
    00:00 +10°C° 0.5 mm 1 mps 624 mmHg 96%
    01:00 +10°C° 0.5 mm 1 mps 624 mmHg 97%
    02:00 +10°C° 0.8 mm 1 mps 624 mmHg 97%
    03:00 +10°C° 0.8 mm 1 mps 624 mmHg 97%
    04:00 +10°C° 0.8 mm 1 mps 623 mmHg 98%
    05:00 +10°C° 0.9 mm 1 mps 624 mmHg 97%
    06:00 +10°C° 0.9 mm 1 mps 624 mmHg 96%
    07:00 +10°C° 0.9 mm 1 mps 624 mmHg 95%
    08:00 +11°C° 1.1 mm 1 mps 624 mmHg 92%
    09:00 +11°C° 1.1 mm 1 mps 625 mmHg 90%
    10:00 +12°C° 1.1 mm 1 mps 625 mmHg 88%
    11:00 +13°C° 0.9 mm 1 mps 625 mmHg 86%
    12:00 +13°C° 0.9 mm 1 mps 626 mmHg 84%
    13:00 +14°C° 0.9 mm 1 mps 626 mmHg 82%
    14:00 +14°C° 1.4 mm 1 mps 626 mmHg 84%
    15:00 +13°C° 1.4 mm 1 mps 626 mmHg 85%
    16:00 +13°C° 1.4 mm 2 mps 626 mmHg 87%
    17:00 +12°C° 2.1 mm 2 mps 626 mmHg 89%
    18:00 +11°C° 2.1 mm 1 mps 626 mmHg 92%
    19:00 +10°C° 2.1 mm 1 mps 626 mmHg 94%
    20:00 +9°C° 1.2 mm 1 mps 626 mmHg 95%
    21:00 +9°C° 1.2 mm 1 mps 627 mmHg 96%
    22:00 +8°C° 1.2 mm 1 mps 627 mmHg 97%
    23:00 +8°C° 1.2 mm 1 mps 627 mmHg 97%

    Tomorrow, 30 June, Friday

    Time Temperature Precipitation Wind Pressure Humidity
    00:00 +8°C° 1.2 mm 1 mps 627 mmHg 97%
    01:00 +8°C° 1.2 mm 1 mps 627 mmHg 96%
    02:00 +7°C° 1.1 mm 1 mps 627 mmHg 96%
    03:00 +7°C° 1.1 mm 1 mps 627 mmHg 96%
    04:00 +7°C° 1.1 mm 1 mps 627 mmHg 95%
    05:00 +8°C° 0.2 mm 1 mps 627 mmHg 94%
    06:00 +8°C° 0.2 mm 1 mps 628 mmHg 92%
    07:00 +9°C° 0.2 mm 1 mps 628 mmHg 91%
    08:00 +10°C° 0.3 mm 1 mps 629 mmHg 86%
    09:00 +11°C° 0.3 mm 1 mps 629 mmHg 81%
    10:00 +13°C° 0.3 mm 1 mps 630 mmHg 75%
    11:00 +13°C° 0.9 mm 1 mps 630 mmHg 75%
    12:00 +13°C° 0.9 mm 2 mps 630 mmHg 75%
    13:00 +14°C° 0.9 mm 2 mps 630 mmHg 75%
    14:00 +13°C° 1.2 mm 2 mps 630 mmHg 76%
    15:00 +13°C° 1.2 mm 1 mps 630 mmHg 77%
    16:00 +13°C° 1.2 mm 1 mps 630 mmHg 78%
    17:00 +12°C° 0.9 mm 1 mps 630 mmHg 82%
    18:00 +11°C° 0.9 mm 1 mps 630 mmHg 85%
    19:00 +11°C° 0.9 mm 1 mps 630 mmHg 89%
    20:00 +9°C° 0.7 mm 1 mps 630 mmHg 91%
    21:00 +8°C° 0.7 mm 1 mps 629 mmHg 94%
    22:00 +6°C° 0.7 mm 1 mps 629 mmHg 96%
    23:00 +5°C° 0.4 mm 0 mps 629 mmHg 96%

    Day after tomorrow, 1 July, Saturday

    Time Temperature Precipitation Wind Pressure Humidity
    00:00 +5°C° 0.4 mm 0 mps 629 mmHg 96%
    01:00 +4°C° 0.4 mm 0 mps 629 mmHg 96%
    02:00 +4°C° 0.3 mm 0 mps 629 mmHg 96%
    03:00 +4°C° 0.3 mm 0 mps 629 mmHg 96%
    04:00 +4°C° 0.3 mm 0 mps 629 mmHg 96%
    05:00 +6°C° 0.1 mm 1 mps 630 mmHg 93%
    06:00 +8°C° 0.1 mm 1 mps 630 mmHg 90%
    07:00 +9°C° 0.1 mm 1 mps 631 mmHg 87%
    08:00 +11°C° 0.2 mm 1 mps 631 mmHg 82%
    09:00 +12°C° 0.2 mm 1 mps 632 mmHg 76%
    10:00 +13°C° 0.2 mm 1 mps 632 mmHg 70%
    11:00 +13°C° 0.7 mm 1 mps 632 mmHg 70%
    12:00 +14°C° 0.7 mm 1 mps 632 mmHg 71%
    13:00 +14°C° 0.7 mm 1 mps 633 mmHg 71%
    14:00 +14°C° 0.7 mm 1 mps 632 mmHg 74%
    15:00 +13°C° 0.7 mm 2 mps 632 mmHg 76%
    16:00 +13°C° 0.7 mm 2 mps 632 mmHg 79%
    17:00 +12°C° 0.8 mm 2 mps 632 mmHg 83%
    18:00 +11°C° 0.8 mm 1 mps 632 mmHg 87%
    19:00 +11°C° 0.8 mm 1 mps 632 mmHg 92%
    20:00 +10°C° 0.4 mm 1 mps 632 mmHg 93%
    21:00 +9°C° 0.4 mm 1 mps 632 mmHg 95%
    22:00 +8°C° 0.4 mm 1 mps 632 mmHg 97%
    23:00 +8°C° 0.1 mm 1 mps 632 mmHg 97%

    2 July, Sunday

    Time Temperature Precipitation Wind Pressure Humidity
    00:00 +7°C° 0.1 mm 1 mps 632 mmHg 97%
    01:00 +7°C° 0.1 mm 1 mps 632 mmHg 97%
    02:00 +7°C° 0.2 mm 1 mps 632 mmHg 97%
    03:00 +7°C° 0.2 mm 1 mps 633 mmHg 97%
    04:00 +7°C° 0.2 mm 1 mps 633 mmHg 97%
    05:00 +7°C° 0.5 mm 1 mps 633 mmHg 97%
    06:00 +8°C° 0.5 mm 1 mps 634 mmHg 96%
    07:00 +9°C° 0.5 mm 1 mps 634 mmHg 95%
    08:00 +9°C° 0.5 mm 1 mps 634 mmHg 92%
    09:00 +9°C° 0.5 mm 2 mps 635 mmHg 90%
    10:00 +10°C° 0.5 mm 2 mps 635 mmHg 87%
    11:00 +10°C° 0.3 mm 2 mps 636 mmHg 84%
    12:00 +12°C° 0.3 mm 2 mps 636 mmHg 82%
    13:00 +12°C° 0.3 mm 2 mps 636 mmHg 79%
    14:00 +13°C° 0.1 mm 2 mps 636 mmHg 76%
    15:00 +14°C° 0.1 mm 2 mps 637 mmHg 73%
    16:00 +14°C° 0.1 mm 2 mps 637 mmHg 70%
    17:00 +14°C° 0 mm 2 mps 637 mmHg 75%
    18:00 +13°C° 0 mm 2 mps 637 mmHg 79%
    19:00 +12°C° 0 mm 2 mps 637 mmHg 84%
    20:00 +11°C° 0 mm 1 mps 637 mmHg 88%
    21:00 +9°C° 0 mm 1 mps 637 mmHg 92%
    22:00 +8°C° 0 mm 1 mps 637 mmHg 96%
    23:00 +8°C° 0.1 mm 1 mps 637 mmHg 96%

    3 July, Monday

    Time Temperature Precipitation Wind Pressure Humidity
    00:00 +8°C° 0.1 mm 1 mps 636 mmHg 97%
    01:00 +7°C° 0.1 mm 1 mps 636 mmHg 97%
    02:00 +7°C° 0.1 mm 1 mps 636 mmHg 97%
    03:00 +7°C° 0.1 mm 1 mps 636 mmHg 97%
    04:00 +7°C° 0.1 mm 1 mps 636 mmHg 97%
    05:00 +8°C° 0.1 mm 1 mps 637 mmHg 94%
    06:00 +9°C° 0.1 mm 1 mps 637 mmHg 91%
    07:00 +11°C° 0.1 mm 1 mps 638 mmHg 88%
    08:00 +12°C° 0 mm 1 mps 638 mmHg 82%
    09:00 +13°C° 0 mm 1 mps 638 mmHg 76%
    10:00 +14°C° 0 mm 1 mps 639 mmHg 70%
    11:00 +16°C° 0 mm 1 mps 639 mmHg 64%
    12:00 +18°C° 0 mm 1 mps 639 mmHg 57%
    13:00 +19°C° 0 mm 1 mps 639 mmHg 51%
    14:00 +18°C° 0 mm 2 mps 639 mmHg 51%
    15:00 +18°C° 0 mm 2 mps 639 mmHg 52%
    16:00 +18°C° 0 mm 2 mps 639 mmHg 52%
    17:00 +17°C° 0 mm 2 mps 638 mmHg 61%
    18:00 +16°C° 0 mm 2 mps 638 mmHg 69%
    19:00 +14°C° 0 mm 1 mps 637 mmHg 77%
    20:00 +12°C° 0 mm 1 mps 637 mmHg 84%
    21:00 +10°C° 0 mm 1 mps 636 mmHg 90%
    22:00 +8°C° 0 mm 1 mps 636 mmHg 97%
    23:00 +8°C° 0 mm 1 mps 636 mmHg 97%

    4 July, Tuesday

    Time Temperature Precipitation Wind Pressure Humidity
    00:00 +8°C° 0 mm 1 mps 636 mmHg 97%
    01:00 +7°C° 0 mm 1 mps 635 mmHg 97%
    02:00 +7°C° 0 mm 1 mps 635 mmHg 96%
    03:00 +7°C° 0 mm 1 mps 635 mmHg 96%
    04:00 +7°C° 0 mm 1 mps 635 mmHg 96%
    05:00 +9°C° 0 mm 1 mps 636 mmHg 90%
    06:00 +11°C° 0 mm 1 mps 636 mmHg 84%
    07:00 +13°C° 0 mm 1 mps 637 mmHg 79%
    08:00 +15°C° 0 mm 1 mps 638 mmHg 69%
    09:00 +18°C° 0 mm 1 mps 638 mmHg 59%
    10:00 +20°C° 0 mm 1 mps 639 mmHg 49%
    11:00 +20°C° 0 mm 1 mps 639 mmHg 47%
    12:00 +20°C° 0 mm 2 mps 639 mmHg 45%
    13:00 +21°C° 0 mm 2 mps 639 mmHg 43%
    14:00 +21°C° 0.1 mm 2 mps 638 mmHg 45%
    15:00 +20°C° 0.1 mm 2 mps 638 mmHg 47%
    16:00 +20°C° 0.1 mm 2 mps 638 mmHg 50%
    17:00 +19°C° 0.1 mm 2 mps 637 mmHg 59%
    18:00 +17°C° 0.1 mm 2 mps 637 mmHg 67%
    19:00 +16°C° 0.1 mm 1 mps 637 mmHg 76%
    20:00 +13°C° 0 mm 1 mps 636 mmHg 83%
    21:00 +11°C° 0 mm 1 mps 635 mmHg 89%
    22:00 +8°C° 0 mm 1 mps 634 mmHg 96%
    23:00 +8°C° 0 mm 1 mps 634 mmHg 95%
    Show more